[[{"header":{"parameterUnit":"m.s-1","parameterCategory":1,"la1":30.2992,"la2":30.254,"lo1":-89.0895,"lo2":-89.0443,"dy":0.0025,"dx":0.0025,"nx":19,"ny":19,"refTime":"2026-05-03T21:00:00:Z","depth":0,"parameterNumber":2,"parameterNumberName":"U-component_of_WINDS"},"data":[0,0,0,-2.2693,-2.2693,-2.2715,-2.2715,-2.2753,-2.2754,0,0,0,0,0,0,0,0,0,0,0,-2.2692,-2.2692,-2.2693,-2.2694,-2.2715,-2.2715,-2.2753,-2.2754,0,0,0,0,0,0,0,0,0,0,0,-2.2692,-2.2692,-2.2693,-2.2694,-2.2715,-2.2715,-2.2753,-2.2733,0,0,0,0,0,0,0,0,0,0,-2.2711,-2.2715,-2.2692,-2.2693,-2.2694,-2.2715,-2.2715,-2.2732,-2.2734,-2.2748,0,-2.276,0,-2.2758,-2.2757,-2.2757,0,0,0,-2.269,-2.2713,-2.2714,-2.2693,-2.2694,-2.2715,-2.2704,-2.2733,-2.2736,-2.2751,-2.2761,-2.2762,-2.2758,-2.2757,-2.2757,-2.2847,-2.2848,0,0,-2.2688,-2.2699,-2.2712,-2.2716,-2.2712,-2.2703,-2.2705,-2.2735,-2.2746,-2.2761,-2.2763,-2.2759,-2.2757,-2.2758,-2.2847,-2.2847,0,0,0,-2.2688,-2.2698,-2.2698,-2.2714,-2.2717,-2.2704,-2.2706,-2.2745,-2.2744,-2.2763,-2.2759,-2.2758,-2.2758,-2.2846,-2.2847,-2.2886,0,0,0,-2.2687,-2.2698,-2.2698,-2.2704,-2.2717,-2.2731,-2.2715,-2.2742,-2.2745,-2.2759,-2.2758,-2.2759,-2.2845,-2.2846,-2.2883,-2.2902,0,0,0,-2.2689,-2.2698,-2.2703,-2.2705,-2.2714,-2.273,-2.2731,-2.2742,-2.2743,-2.2757,-2.2759,-2.2845,-2.2846,-2.2881,-2.2898,-2.2929,0,0,0,-2.2694,-2.2737,-2.2703,-2.2751,-2.2714,-2.2755,-2.2731,-2.276,-2.2777,-2.2758,-2.2845,-2.2847,-2.288,-2.2896,-2.2927,-2.2955,-2.2969,0,0,-2.2753,-2.2744,-2.2771,-2.2742,-2.2791,-2.2751,-2.2806,-2.2812,-2.2804,-2.2834,-2.2836,-2.2884,-2.2898,-2.2928,-2.3041,-2.3052,0,0,0,-2.2794,-2.2813,-2.2824,-2.284,-2.2846,-2.2854,-2.285,-2.2853,-2.2877,-2.2821,-2.2904,-2.2912,-2.2929,-2.2942,-2.2951,-2.2966,-2.2854,-2.2853,-2.2853,-2.2891,-2.288,-2.2924,-2.2916,-2.2933,-2.2931,-2.2944,-2.2947,-2.293,-2.295,-2.2958,-2.3028,-2.3044,-2.3051,-2.3066,-2.2974,-2.2974,-2.2974,-2.2974,-2.2977,-2.3002,-2.2982,-2.3017,-2.3006,-2.3036,-2.3037,-2.3024,-2.3051,-2.3021,-2.3035,-2.3001,-2.3063,-2.3075,-2.2977,-2.2976,-2.2976,-2.2976,-2.2976,-2.3038,-2.3048,-2.3052,-2.3077,-2.3098,-2.3089,-2.3117,-2.3106,-2.3096,-2.3111,-2.3118,-2.3118,-2.3115,-2.3116,-2.3116,-2.3116,-2.3116,-2.3117,-2.3117,-2.3099,-2.3102,-2.3126,-2.3139,-2.3149,-2.3162,-2.3163,-2.3174,-2.3183,-2.3173,-2.3173,-2.3154,-2.3071,-2.305,-2.312,-2.312,-2.3119,-2.3119,-2.3119,-2.3187,-2.3166,-2.3203,-2.3214,-2.323,-2.3252,-2.324,-2.3263,-2.327,-2.3285,-2.3265,-2.3205,-2.3195,-2.3188,-2.317,-2.3267,-2.3267,-2.3267,-2.3267,-2.3237,-2.3232,-2.3269,-2.3287,-2.3305,-2.3298,-2.3343,-2.3345,-2.3345,-2.3349,-2.3335,-2.3311,-2.3304,-2.3297,-2.3288,-2.3271,-2.3392,-2.3392,-2.3392,-2.3291,-2.3287,-2.3326,-2.3325,-2.3338,-2.3349,-2.3391,-2.3415,-2.341,-2.3397,-2.3353,-2.3348,-2.3309,-2.3297,-2.328,-2.3265,-2.3234,0,0]},{"header":{"parameterUnit":"m.s-1","parameterCategory":1,"la1":30.2992,"la2":30.254,"lo1":-89.0895,"lo2":-89.0443,"dy":0.0025,"dx":0.0025,"nx":19,"ny":19,"refTime":"2026-05-03T21:00:00:Z","depth":0,"parameterNumber":3,"parameterNumberName":"V-component_of_WINDS"},"data":[0,0,0,3.0555,3.0554,3.0538,3.0538,3.0506,3.0506,0,0,0,0,0,0,0,0,0,0,0,3.0554,3.0554,3.0555,3.0554,3.0538,3.0538,3.0507,3.0506,0,0,0,0,0,0,0,0,0,0,0,3.0555,3.0554,3.0554,3.0554,3.0538,3.0538,3.0507,3.0522,0,0,0,0,0,0,0,0,0,0,3.054,3.0535,3.0554,3.0554,3.0554,3.0538,3.0538,3.0523,3.0521,3.051,0,3.05,0,3.0502,3.0503,3.0503,0,0,0,3.0557,3.0537,3.0537,3.0554,3.0554,3.0538,3.0546,3.0522,3.052,3.0507,3.0499,3.0498,3.0502,3.0503,3.0503,3.0429,3.0429,0,0,3.0558,3.0548,3.0538,3.0535,3.0539,3.0546,3.0545,3.0521,3.0511,3.0499,3.0498,3.0501,3.0503,3.0503,3.043,3.0429,0,0,0,3.0559,3.0549,3.055,3.0536,3.0534,3.0546,3.0545,3.0512,3.0513,3.0497,3.0501,3.0503,3.0502,3.0431,3.043,3.0395,0,0,0,3.0559,3.0549,3.055,3.0544,3.0535,3.0523,3.0536,3.0515,3.0513,3.0501,3.0503,3.0502,3.0431,3.043,3.0398,3.038,0,0,0,3.0557,3.0549,3.0545,3.0543,3.0536,3.0524,3.0524,3.0515,3.0515,3.0503,3.0502,3.0431,3.043,3.0399,3.0383,3.0357,0,0,0,3.0551,3.0514,3.0544,3.0504,3.0536,3.0504,3.0524,3.05,3.0486,3.0503,3.0431,3.043,3.04,3.0385,3.0359,3.0333,3.0322,0,0,3.0498,3.0507,3.0484,3.0511,3.047,3.0507,3.0461,3.0457,3.0464,3.044,3.0439,3.0397,3.0384,3.0358,3.0263,3.0254,0,0,0,3.0464,3.0447,3.0439,3.0426,3.0423,3.0419,3.0424,3.0423,3.0403,3.0451,3.0382,3.0374,3.0359,3.0347,3.0339,3.0327,3.0424,3.0424,3.0424,3.0373,3.0386,3.0349,3.036,3.0348,3.0354,3.0344,3.0343,3.0359,3.0342,3.0335,3.0276,3.0261,3.0255,3.0242,3.0323,3.0323,3.0323,3.0323,3.0296,3.0274,3.0298,3.027,3.0283,3.026,3.0264,3.0276,3.0255,3.0282,3.027,3.0297,3.0245,3.0234,3.032,3.0321,3.0321,3.0321,3.0322,3.0237,3.0229,3.0229,3.0213,3.0198,3.0211,3.019,3.0203,3.0215,3.0203,3.0196,3.0197,3.0198,3.0199,3.0199,3.0199,3.0199,3.0199,3.0199,3.0175,3.0177,3.0158,3.0153,3.0147,3.0141,3.0147,3.0141,3.0137,3.0148,3.0148,3.0165,3.0238,3.0255,3.0195,3.0196,3.0196,3.0197,3.0197,3.0089,3.0111,3.0082,3.0076,3.0072,3.0056,3.0075,3.0061,3.0058,3.0047,3.0068,3.012,3.0129,3.0135,3.015,3.0066,3.0066,3.0066,3.0066,3.0038,3.0045,3.0019,3.0009,3.0,3.0014,2.998,2.9985,2.9993,2.9992,3.0006,3.0027,3.0033,3.0038,3.0047,3.006,2.9956,2.9956,2.9955,2.9986,2.9993,2.9961,2.9971,2.9969,2.9966,2.9935,2.9921,2.9935,2.9951,2.9991,2.9996,3.0029,3.004,3.0054,3.0067,3.0092,0,0]}]]